Theta_e
306 305 305 305 305 306 306 306 306 306 307 308 308 308 308 308 308 309 311 310 313 320 320 318 319 323 322 323 327 325 327 327 329 327 326 327 328 331 331 338 335 334 335 333 334 337 340 333 336 345 341 344 346 344
306 306 305 305 306 306 306 306 306 307 307 308 308 308 308 309 308 308 314 312 311 315 318 316 315 316 317 317 319 323 325 327 328 329 329 329 330 333 332 337 334 339 339 341 340 343 333 332 336 335 338 339 338 336
307 306 306 307 306 306 306 307 307 308 307 308 309 310 309 308 308 309 313 312 313 318 317 315 315 315 314 315 316 323 323 323 326 324 330 335 337 337 335 338 337 333 332 338 338 334 333 332 331 332 334 334 333 332
307 307 307 306 306 306 307 306 307 307 307 307 307 308 308 308 308 309 314 313 314 317 319 316 315 319 319 318 318 318 320 320 322 324 331 334 336 333 337 337 338 334 334 337 337 333 332 331 331 330 329 329 329 328
308 307 307 307 306 307 307 307 307 308 307 307 307 307 308 308 308 310 313 314 313 317 320 319 317 319 319 319 319 319 319 321 327 330 333 334 331 333 332 334 334 331 336 336 337 333 335 332 328 326 327 326 325 324
309 307 307 307 308 308 308 308 307 307 307 307 307 307 307 308 308 313 318 314 313 314 320 321 319 320 320 319 318 319 321 328 330 331 332 330 327 332 337 338 330 329 329 331 333 329 329 326 324 323 323 322 321 321
311 309 308 307 307 307 307 307 307 308 308 308 309 308 308 308 310 314 316 313 312 313 320 323 321 321 320 319 320 325 327 329 331 331 332 332 331 332 335 338 330 329 330 329 326 324 324 323 322 319 318 316 315 314
312 311 310 310 309 309 308 307 308 308 309 312 312 310 310 310 311 314 313 314 313 317 318 323 322 322 321 322 322 323 329 331 330 331 331 333 332 332 333 329 329 327 326 326 325 325 322 319 318 318 315 314 315 314
313 313 313 312 311 311 310 308 308 311 312 314 313 313 314 315 316 317 313 312 314 317 320 323 326 324 322 323 323 326 329 336 330 333 333 333 331 333 328 326 328 326 325 322 320 319 318 318 316 316 315 315 316 315
310 311 314 314 313 312 311 309 312 314 311 313 314 316 317 317 314 313 315 319 320 319 319 322 321 326 323 324 325 328 329 336 336 332 331 331 329 329 327 327 326 323 321 320 319 319 317 317 316 315 315 314 313 313
308 308 314 315 314 312 310 313 314 315 310 314 316 320 316 314 315 318 320 320 320 321 321 321 322 324 322 330 329 326 331 334 336 332 333 330 331 328 326 324 321 319 317 317 317 316 316 316 316 315 314 312 312 312
307 307 313 316 315 313 312 314 315 316 317 315 316 315 317 317 318 319 320 320 319 321 322 324 324 323 323 322 331 328 328 329 333 330 333 332 330 328 326 323 319 318 317 316 315 315 314 314 313 312 312 311 310 310
306 307 314 316 316 315 315 314 315 315 315 316 316 317 316 317 321 321 320 320 321 320 321 321 324 322 323 325 328 328 328 330 328 332 334 331 330 328 326 322 320 317 316 315 315 314 312 311 310 310 310 309 309 309
306 307 317 316 314 315 317 315 315 314 316 317 318 314 317 318 319 321 318 319 317 317 318 320 323 324 325 328 327 329 328 328 330 333 333 332 330 328 324 321 320 319 317 316 315 314 312 311 310 310 309 308 308 308
305 308 318 316 310 318 317 315 314 313 317 318 318 318 319 318 318 316 315 315 317 317 320 323 324 326 328 326 328 328 329 328 328 329 331 330 330 328 324 322 321 318 317 315 315 314 313 311 310 310 309 309 309 309
305 312 317 313 308 318 316 315 315 316 317 320 321 320 318 319 319 320 319 318 314 317 320 322 325 325 324 326 327 326 327 327 331 328 328 330 329 327 327 324 321 319 318 317 316 316 315 313 312 311 310 310 310 311
306 319 314 307 311 318 317 318 318 321 322 322 324 321 322 322 323 324 319 318 315 320 324 325 327 325 325 327 328 328 329 330 327 328 328 330 329 327 326 324 322 322 320 320 319 318 317 316 314 312 312 311 311 311
308 309 306 309 318 319 320 320 322 323 325 324 323 321 318 320 319 322 322 318 320 323 322 325 325 327 327 327 328 326 325 325 326 326 328 329 327 326 325 324 323 323 322 321 321 320 319 317 317 315 313 312 312 312
307 312 318 319 320 320 326 325 323 326 327 328 327 325 324 323 320 320 322 321 320 321 321 323 325 327 327 328 327 328 327 329 330 330 329 327 327 326 326 325 325 324 323 321 320 320 318 318 316 313 311 311 312 311
316 319 321 320 320 324 328 329 322 327 326 328 326 327 326 326 325 323 321 322 324 325 325 325 324 325 327 328 328 329 329 329 328 329 328 328 325 324 323 324 325 322 320 320 319 317 316 316 314 312 311 311 311 311
320 321 320 320 322 324 326 329 327 326 326 327 325 324 324 323 324 324 324 323 325 325 324 322 322 323 322 324 325 327 326 325 330 329 326 327 324 325 324 324 323 321 319 316 314 313 313 312 312 312 312 312 312 312
320 320 323 323 328 326 327 325 328 327 328 325 324 323 323 325 324 323 323 324 325 327 326 325 323 321 321 322 321 323 321 320 319 320 321 321 324 323 323 322 320 318 316 314 313 313 312 312 312 311 311 312 312 312
321 322 325 326 330 323 325 325 328 328 327 326 325 324 324 326 323 322 323 324 325 324 323 324 323 322 322 321 321 323 322 320 321 321 319 318 318 318 317 318 317 317 315 313 313 313 313 313 312 311 312 312 313 313
320 326 329 331 330 327 327 330 328 328 327 327 325 323 324 325 321 320 320 323 323 322 326 324 322 322 322 322 321 321 322 319 319 319 318 316 316 316 316 315 316 316 315 313 313 313 313 313 313 313 312 312 312 312
321 326 325 319 330 332 331 332 329 327 328 326 325 323 325 323 324 321 319 321 322 322 323 322 321 318 318 318 317 318 320 317 316 316 316 316 316 316 316 317 315 314 314 314 314 313 313 312 312 313 312 312 312 312
320 328 328 327 330 331 331 331 330 329 328 327 323 324 325 325 324 323 320 320 321 323 322 320 318 318 317 317 318 317 317 318 317 316 315 315 315 314 314 315 315 314 314 315 314 314 314 314 313 313 313 313 312 312
326 332 331 329 331 332 332 330 329 329 328 327 326 326 325 324 323 323 321 320 320 320 320 320 319 317 316 316 316 316 316 317 317 316 316 315 315 314 314 314 314 314 314 313 313 313 313 313 312 312 312 312 312 312
329 330 331 331 334 332 333 332 331 329 328 327 327 327 324 322 323 324 321 319 319 321 322 321 320 318 317 316 316 316 317 316 315 314 314 314 314 314 314 313 314 311 311 312 311 311 311 311 311 311 311 311 311 312
329 328 331 329 329 330 331 332 331 329 327 326 327 325 323 322 322 321 319 319 320 320 319 320 320 318 317 318 317 317 317 316 316 317 317 316 315 314 313 312 312 311 310 310 309 308 309 309 310 310 311 310 310 310
328 327 330 329 328 328 331 330 331 328 325 324 320 320 321 321 319 319 318 318 318 318 317 317 317 317 318 318 318 318 318 318 318 317 317 316 315 314 312 311 310 310 310 310 310 309 307 308 308 308 308 308 307 307
327 328 330 330 330 329 329 329 329 324 322 321 319 320 319 319 318 318 318 317 317 317 317 317 316 315 315 316 317 318 319 317 317 316 315 314 313 312 311 310 310 309 309 308 308 308 308 307 307 307 307 307 306 305
328 330 330 328 330 329 328 328 326 326 324 324 321 319 319 319 320 319 317 318 317 317 316 316 316 315 315 315 317 318 318 318 316 315 314 313 312 311 310 309 308 308 308 308 307 307 307 307 307 307 306 306 306 306
328 327 328 329 330 331 330 329 327 327 326 327 327 324 321 319 321 320 318 316 317 317 317 316 315 315 316 317 317 318 317 316 315 314 312 311 311 309 309 309 308 308 308 308 308 307 307 307 307 307 307 307 307 306
Wind_Speed
14 12 11 10 7 7 8 9 9 8 8 9 10 10 8 5 5 3 3 4 5 4 5 3 2 2 2 1 3 4 5 6 6 11 12 10 10 9 14 1 8 11 9 8 8 11 6 3 5 5 6 11 14 17
12 11 9 8 8 8 9 9 8 7 8 8 9 9 7 3 5 2 2 1 4 6 6 7 12 11 8 5 6 1 4 1 4 6 3 5 6 4 13 9 2 5 4 3 5 4 3 3 6 10 10 14 14 15
11 10 9 9 8 7 9 9 8 9 8 8 9 8 5 3 3 1 3 2 4 4 7 7 7 7 8 12 10 4 3 4 1 3 3 2 3 4 9 4 6 4 0 4 8 8 10 11 12 13 14 15 14 14
10 9 8 7 6 6 8 6 6 8 8 8 7 6 4 3 3 2 4 3 5 5 4 4 4 4 3 5 8 13 10 6 4 4 3 2 2 3 3 4 1 4 8 9 15 12 14 12 12 13 14 14 14 13
10 8 7 6 6 7 8 8 8 8 7 7 7 6 5 4 5 6 7 5 4 6 4 3 2 4 3 5 8 9 9 6 4 4 3 2 2 3 2 4 5 1 10 4 5 18 6 15 12 11 12 12 11 12
11 9 7 7 8 8 7 8 8 8 7 6 5 5 4 4 4 4 5 5 5 3 4 2 4 4 1 1 5 6 4 2 3 2 3 3 2 4 3 4 2 4 3 9 16 15 17 16 13 12 13 12 12 12
11 9 8 7 7 8 8 8 8 8 7 7 5 5 6 6 3 4 4 2 3 3 3 3 5 4 2 4 3 3 3 2 3 2 2 2 3 2 1 3 7 9 11 18 19 20 18 12 12 14 15 15 14 13
12 10 8 8 8 8 8 8 8 9 10 7 5 6 6 5 4 3 2 1 2 4 3 3 1 5 5 3 3 1 3 3 3 2 3 2 3 1 4 11 15 17 19 17 11 9 17 18 16 14 15 14 10 9
14 13 11 9 8 8 8 8 8 9 9 3 1 2 2 3 2 2 3 2 3 3 2 2 3 4 3 3 2 4 3 2 1 2 2 1 4 3 12 14 15 16 9 17 18 19 17 16 15 13 12 11 11 9
15 14 12 11 9 8 7 7 8 10 5 3 1 4 2 2 5 1 2 4 5 2 2 2 0 0 4 2 3 5 3 3 1 3 1 3 2 11 13 12 9 14 16 17 19 17 16 16 14 13 12 12 11 10
16 17 13 9 8 6 5 5 8 8 2 3 3 1 2 4 3 2 1 2 1 3 1 2 3 2 3 2 0 2 3 6 5 4 2 3 3 7 10 12 13 15 16 13 16 16 16 14 13 12 12 12 11 11
16 17 12 7 6 5 5 5 6 3 2 1 2 1 2 2 1 2 1 2 2 2 1 3 1 2 1 1 3 0 1 4 4 5 4 4 8 14 13 14 14 13 17 17 19 18 17 16 14 14 13 12 11 11
16 18 8 4 6 6 6 6 5 3 2 0 2 1 2 1 2 2 1 2 1 3 3 3 2 1 2 2 1 2 1 2 5 3 4 4 14 15 15 14 12 17 19 20 20 18 17 16 14 14 14 13 13 12
16 17 4 2 9 9 5 3 1 2 1 1 1 3 2 1 1 4 1 3 2 2 3 3 4 2 2 3 0 1 2 3 4 5 5 11 18 17 15 13 15 16 18 18 18 18 17 15 14 13 13 12 12 12
17 15 4 3 12 7 1 3 3 1 1 0 1 1 1 2 1 2 3 2 3 1 3 3 4 3 3 3 2 3 4 4 3 2 5 13 17 16 17 16 15 14 16 17 17 15 15 14 12 12 11 11 10 9
17 7 5 6 13 3 3 5 3 2 1 2 1 1 1 3 1 1 0 1 3 2 2 3 3 3 3 1 4 1 1 2 3 3 8 15 18 17 16 15 19 20 18 17 16 15 15 13 12 11 9 8 6 4
11 2 4 14 10 2 5 4 4 3 2 2 1 1 3 3 3 2 1 1 2 3 2 1 3 2 1 3 4 0 1 3 3 7 11 15 17 16 17 19 19 18 17 17 16 15 14 12 10 9 7 6 4 2
3 9 17 14 3 4 4 4 3 3 3 3 3 2 1 2 2 3 1 3 3 2 1 2 3 2 1 2 2 2 2 4 5 10 12 13 17 19 21 20 20 19 16 15 14 14 13 11 9 9 8 7 6 5
18 12 2 3 3 3 3 4 3 1 2 2 3 3 3 2 4 5 2 3 2 2 1 1 2 1 2 2 5 6 7 8 9 9 9 15 18 18 17 18 17 16 16 15 13 12 11 12 9 7 8 7 7 4
2 0 3 3 6 3 3 2 2 2 1 2 1 2 1 1 2 3 2 2 3 2 1 1 2 1 3 4 4 5 6 8 9 10 9 8 11 15 15 15 15 17 15 12 11 8 10 11 10 8 7 6 6 7
1 2 3 1 2 3 3 1 1 1 2 1 2 1 3 3 4 5 5 3 2 2 2 2 1 2 4 6 5 7 9 9 5 6 9 8 13 13 13 12 16 15 12 10 9 9 8 10 10 10 9 10 10 10
1 5 2 2 3 2 1 2 2 2 1 2 2 0 1 2 3 4 1 4 3 2 2 3 3 2 2 4 6 7 8 12 13 12 13 13 7 9 9 13 13 10 7 7 9 9 11 10 9 9 9 9 10 11
4 1 2 3 3 1 1 3 1 2 2 2 2 1 2 2 2 2 2 3 3 4 6 7 8 11 12 8 5 7 7 10 8 10 10 10 9 10 10 9 9 10 8 8 8 9 9 8 10 11 11 11 12 12
3 2 2 2 3 2 3 1 1 1 2 1 1 2 2 2 1 1 3 3 6 7 5 8 8 7 8 8 6 10 10 9 11 10 9 11 10 10 8 9 8 9 8 7 8 9 9 10 10 12 14 15 16 16
1 1 1 3 3 3 4 4 4 2 4 2 2 3 2 2 1 1 2 4 6 6 6 8 6 7 7 6 9 9 7 8 9 8 9 6 4 5 7 8 7 8 9 10 11 12 12 13 14 15 16 18 19 20
1 2 2 1 1 2 2 3 4 4 1 2 1 3 3 2 1 0 3 6 6 6 7 7 6 6 5 7 7 8 9 8 5 5 8 8 8 7 6 7 8 12 13 13 14 14 15 15 15 14 14 14 15 15
0 1 2 1 3 2 2 2 2 2 4 3 2 2 2 2 0 3 4 6 6 10 13 11 8 8 8 9 7 7 6 6 4 1 4 4 6 7 7 7 7 4 1 6 8 9 10 10 11 13 14 13 14 13
2 2 3 2 2 2 1 1 2 2 2 1 3 3 2 2 4 3 3 10 8 13 14 11 8 7 7 9 9 9 7 6 5 4 4 3 3 4 4 3 3 5 5 7 8 9 11 11 11 13 13 12 9 5
2 0 2 3 1 2 1 1 2 2 1 2 1 0 1 2 2 4 9 11 13 15 14 12 10 8 8 8 8 9 8 9 9 7 8 5 6 7 6 5 6 7 6 5 4 4 5 6 6 5 5 5 4 4
1 2 3 2 2 1 2 2 2 2 0 2 2 1 3 3 5 6 13 13 14 13 13 12 10 10 10 11 12 13 12 12 10 8 4 4 4 1 3 4 4 4 4 5 5 3 1 3 4 6 6 7 7 6
1 1 2 2 1 1 2 3 2 1 1 1 2 3 4 4 5 6 11 14 14 12 10 9 8 7 8 7 9 11 11 11 9 7 4 2 2 3 2 3 4 3 2 2 2 3 4 4 4 4 3 3 3 5
2 1 3 3 0 1 1 1 1 1 1 2 2 1 4 4 4 6 12 14 14 14 14 12 9 8 6 5 6 8 5 4 10 11 9 7 5 4 4 4 4 4 3 3 3 3 3 5 5 4 5 5 6 7
1 1 2 2 0 2 2 1 2 0 3 3 4 5 5 3 3 2 8 18 16 14 13 11 10 6 4 5 6 7 7 7 10 13 14 12 9 6 4 4 5 5 5 5 5 5 6 6 8 9 10 11 12 13
Wind_Direction
328 328 328 328 328 317 320 319 320 311 322 322 327 322 321 322 303 302 274 223 286 292 290 270 279 254 193 250 301 69 204 202 192 223 219 212 234 189 223 219 181 190 201 203 217 212 189 7 187 238 78 133 145 149
336 335 337 338 329 323 317 308 310 313 305 317 324 321 322 315 283 280 248 228 246 266 328 304 279 271 272 300 300 276 347 76 14 246 245 264 207 195 204 193 179 192 341 85 358 57 68 96 104 98 110 121 125 128
343 341 337 336 336 329 319 312 312 317 324 329 324 327 323 312 295 236 280 273 267 269 261 239 229 220 229 241 239 281 123 1 134 350 333 336 234 302 201 142 128 115 18 106 167 91 98 93 95 102 104 107 108 111
349 342 334 331 329 333 327 327 331 327 332 332 335 327 314 299 281 257 261 267 275 292 276 129 201 208 188 195 221 237 283 289 287 251 240 258 186 297 55 83 153 41 157 122 102 123 110 105 107 109 106 102 97 85
340 327 323 315 310 318 326 331 327 327 331 336 329 318 308 296 286 268 252 241 255 309 328 312 221 157 211 228 247 232 241 261 250 203 223 110 104 187 97 137 118 228 152 198 162 159 127 129 118 114 106 99 96 98
349 351 337 323 321 322 326 332 330 328 331 336 331 307 282 276 303 252 208 203 226 292 274 232 81 149 75 249 171 188 203 207 254 296 99 107 75 277 173 90 62 143 133 72 120 124 122 119 113 107 102 93 84 83
352 351 348 339 330 327 329 330 329 329 330 319 299 277 274 279 268 277 4 27 245 260 254 255 168 114 18 175 152 141 172 109 322 125 69 94 105 293 331 103 119 112 117 115 117 125 123 126 116 110 103 99 93 89
349 346 339 331 326 323 325 324 324 327 328 319 286 261 263 261 242 230 206 277 144 259 258 282 158 172 358 172 157 175 155 166 32 71 147 70 122 54 80 128 119 118 120 127 138 111 115 117 119 117 118 115 104 94
345 339 332 322 316 315 317 315 315 325 327 319 213 175 174 221 248 76 284 255 241 282 324 287 303 108 345 147 179 170 201 88 105 91 64 320 347 26 146 142 134 135 125 125 116 117 122 118 118 118 114 107 97 87
341 334 324 319 315 313 314 313 320 330 308 243 197 230 221 124 291 216 156 207 196 182 235 17 317 254 307 227 139 165 144 137 109 71 181 99 40 123 142 130 121 127 129 131 127 127 127 123 119 112 104 96 92 87
345 344 333 317 315 316 317 325 333 337 239 221 221 199 360 300 234 217 220 240 191 183 17 28 20 338 50 269 142 332 162 161 172 152 197 125 134 154 134 121 125 127 130 126 120 120 118 120 121 118 109 102 94 84
339 342 337 321 318 311 302 313 334 326 297 269 62 343 291 258 285 259 137 147 337 50 40 319 23 328 356 304 263 305 207 186 148 168 140 122 146 155 142 133 130 123 120 118 119 118 117 113 111 110 107 100 91 87
334 338 331 321 332 319 296 293 309 294 194 236 224 160 347 292 350 277 195 103 279 347 17 335 214 302 210 230 272 311 212 72 143 202 146 122 145 154 148 141 131 129 129 124 121 119 117 115 112 108 103 95 91 86
332 335 299 286 337 332 291 273 288 161 243 280 247 3 273 215 55 88 224 317 313 268 304 276 247 257 212 207 109 242 78 195 191 172 168 146 155 149 148 149 145 142 136 133 133 131 130 121 117 115 112 112 105 96
330 332 216 291 341 348 222 184 154 147 259 135 269 16 27 23 252 157 195 239 236 283 264 227 228 250 190 170 211 169 186 192 218 104 126 144 147 151 150 153 150 147 150 150 147 138 134 140 145 130 126 119 111 107
331 320 213 302 335 330 178 165 164 197 181 198 202 230 131 241 53 244 354 295 123 268 244 231 268 209 188 234 200 161 211 158 96 109 132 141 152 155 158 161 163 158 159 156 153 161 151 161 162 146 144 140 137 125
331 213 280 313 325 204 170 177 201 219 207 109 19 358 330 317 303 2 86 235 188 208 245 263 229 119 157 208 159 128 11 50 108 127 147 150 155 159 161 165 160 159 162 160 165 166 168 168 159 158 172 186 198 200
277 296 301 300 231 178 204 205 236 222 188 144 175 202 222 267 299 279 191 171 211 225 261 354 322 226 223 190 159 99 133 201 145 144 143 148 151 157 161 160 162 164 160 163 167 174 178 177 184 194 200 192 212 234
313 310 278 225 193 209 217 195 239 271 61 127 129 158 205 208 215 254 263 176 180 323 306 301 348 13 33 48 138 126 138 136 132 127 126 144 150 153 153 154 155 156 153 158 171 184 186 196 210 198 194 192 237 257
321 325 333 253 194 231 225 171 222 248 97 93 128 136 111 88 118 125 127 160 196 186 99 115 52 322 65 69 75 121 131 130 130 126 122 126 136 144 149 154 150 142 143 157 180 178 176 190 201 205 211 222 246 258
74 323 340 112 219 248 297 218 215 12 105 129 98 36 69 114 85 85 96 175 183 55 82 62 357 43 47 39 50 100 109 133 126 140 140 137 145 147 150 151 153 162 157 169 172 170 197 194 192 204 216 225 239 250
295 328 199 211 243 200 227 37 327 95 253 108 156 236 103 59 68 61 23 73 57 40 80 120 109 99 41 24 30 75 97 104 108 104 118 131 140 145 145 153 165 165 171 179 191 185 193 208 214 219 230 242 245 257
343 335 220 216 209 141 177 176 248 176 217 166 160 253 80 72 63 258 88 71 86 101 106 113 129 152 145 163 128 121 139 131 150 140 148 131 134 143 148 161 181 184 189 189 200 208 215 214 222 234 245 245 254 264
353 285 252 223 195 178 167 192 313 28 18 185 178 95 77 75 130 35 96 114 120 124 127 136 144 130 133 152 149 133 148 154 136 145 153 159 162 168 184 178 193 207 204 192 198 210 220 227 231 241 248 258 266 270
317 20 171 284 231 204 205 158 159 167 222 198 155 129 132 189 202 151 149 141 164 161 151 158 169 166 148 133 136 139 161 173 161 166 175 208 168 140 194 209 204 210 205 217 227 233 242 250 256 262 269 272 273 274
100 163 195 235 183 255 180 159 171 174 125 133 123 111 179 232 235 172 151 161 168 171 171 175 162 154 156 175 171 171 177 194 190 201 156 198 213 218 186 191 210 217 218 233 253 262 265 267 271 278 279 280 277 271
358 122 161 318 296 283 212 155 106 192 173 175 173 190 214 248 240 102 123 156 165 173 174 177 178 183 149 155 146 139 147 164 184 55 122 206 223 231 251 264 274 305 233 259 261 264 269 275 279 283 290 292 290 290
336 350 336 356 257 257 290 207 186 166 137 172 139 186 265 358 26 93 138 160 165 162 168 175 180 177 182 173 168 166 174 174 179 173 167 175 194 204 211 217 227 266 275 272 276 276 274 279 286 290 292 295 300 303
269 112 284 291 280 245 314 32 65 54 99 177 182 193 140 59 66 132 144 143 149 156 161 171 178 187 189 192 198 203 203 198 201 210 229 253 191 207 215 248 271 274 267 247 256 282 295 295 299 303 301 299 294 290
80 7 285 300 293 51 65 3 69 36 356 17 84 169 160 120 99 131 153 158 165 176 178 187 186 198 220 222 226 219 223 227 241 255 253 275 285 184 228 265 253 239 252 268 270 222 299 259 272 275 287 293 290 292
28 268 280 291 327 62 26 339 124 153 249 222 208 247 115 120 137 164 180 188 195 201 200 208 222 222 234 231 228 206 206 208 217 212 213 238 201 202 229 225 218 227 235 234 236 259 286 280 300 308 311 313 314 292
276 311 317 303 284 121 94 63 126 136 174 207 175 224 182 203 163 164 193 193 200 208 216 236 248 248 229 255 234 218 238 190 185 193 193 198 197 194 199 207 208 211 216 230 255 257 247 276 288 305 298 280 289 293
289 285 301 293 260 143 119 195 57 165 200 212 210 210 210 214 249 148 179 201 208 209 215 215 228 245 224 224 210 191 179 183 183 186 185 184 184 190 212 223 223 228 236 254 267 273 266 273 281 286 286 286 286 287